Airfield :
LOGIN :

Register | Disclaimer

   EN    FR    IT 

 










Legend :    VFR   Marginal VFR   IFR   Intensive IFR   Very Intensive IFR
Visi :
Ceiling :
>= 8 km
>= 3000ft
5 to 8 km
1000 to 3000 ft
1500m to 5 km
500 to 1000 ft
800 to 1500m
200 to 500 ft
< 800m
< 200 ft
Symbols :   Thunderstorms  Fog  Heavy snow  Heavy precipitations  Wind > 20 kt
SIGMETs :     Misc.  Thunderstorms  Icing  Turbulence  Mountain Waves  Volcanic Ashes







- Airport Elevation : 3 ft
- IATA code : LWR


EHLW - Leuuwarden Air Base

CURRENT METAR :
  • 220425Z AUTO 08007KT 050V160 9999 OVC290 13/09 Q1013 BLU

EXPIRED METARs :
  • 220412Z AUTO 08007KT 010V130 9999 OVC290/// 13/09 Q1013 BLU
  • 220355Z AUTO 08007KT 030V130 9999 OVC300 12/09 Q1013 BLU
  • 220325Z AUTO 07008KT 010V110 9999 NCD 12/09 Q1013 BLU
  • 220255Z AUTO 07008KT 010V110 9999 NCD 11/09 Q1013 BLU
  • 220225Z AUTO 07009KT 020V110 9999 NCD 12/09 Q1013 BLU
  • 220155Z AUTO 07008KT 010V130 9999 OVC240 13/09 Q1013 BLU

Expired Forecast.
No reported NOTAMs for that airfield.



MET'MAP, your aeronautical weather chart ! - Copyright ORBIFLY December 2007 - Disclaimer

ORBIFLY MET'MAP TEAM :

Programming & Development : Alexandra Zaïnal
Concept & Development : Baudouin d'Aumeries
Co-Development & Prog : Marc-Olivier Méhu
Technical & hardware support : Manuel Goepfert

Contact : metmap@orbifly.com




SOURCES & CREDITS :

   NOAA